Theta_e
289 282 279 277 278 281 284 284 285 285 284 283 281 280 279 278 278 281 282 284 285 281 278 280 278 278 277 278 279 281 281 279 278 277 277 276 276 276 276 276 277 277 277 282 282 283 283 283 281 280 278 277 278 278 277 276 276 276 276 276 275 276 276 276 275 276 276 276 276 277 279 279 280 281 282 282 282 281 281 281 281 281 279 278 279 280
287 283 278 282 284 284 284 285 284 282 282 282 280 278 279 277 278 281 282 285 285 281 277 280 278 277 277 278 278 279 279 278 277 276 276 276 276 276 276 276 277 277 281 282 282 282 282 280 279 277 276 278 276 277 276 275 275 275 275 275 275 275 275 276 276 277 276 276 276 276 276 277 278 279 280 281 282 282 282 281 281 280 279 279 278 280
281 279 282 284 285 286 285 285 283 281 280 281 280 277 275 274 279 281 282 284 285 282 279 279 279 277 277 277 278 278 278 278 277 277 277 277 276 276 276 277 278 279 279 279 280 280 279 278 277 275 276 276 275 276 275 274 274 274 274 274 274 275 275 276 277 276 275 276 277 276 276 276 277 280 280 281 282 283 283 282 280 280 279 279 278 278
279 280 284 286 286 284 285 284 281 280 280 280 278 277 274 278 276 274 280 281 284 281 277 280 279 277 276 277 276 277 277 277 279 278 277 277 277 277 277 278 278 278 278 279 278 278 277 275 275 275 275 275 275 276 274 273 273 274 275 274 274 274 275 275 276 276 275 276 276 277 276 276 277 278 281 281 282 282 281 281 281 280 280 279 278 278
280 284 286 285 285 285 283 282 279 277 277 278 278 277 274 276 278 277 277 281 282 280 282 278 278 275 274 273 274 276 278 278 278 278 277 278 278 278 279 279 279 278 278 278 276 276 276 274 274 274 275 275 275 275 274 273 273 274 273 273 273 274 274 274 275 274 275 275 274 275 275 275 276 277 278 279 280 280 281 281 281 279 279 279 279 279
282 286 287 285 284 282 281 279 279 278 275 275 278 281 280 279 278 278 278 279 276 274 279 279 270 270 273 274 274 274 275 275 276 275 276 277 277 277 277 278 278 280 278 278 276 276 275 274 273 274 274 274 274 274 274 273 273 273 273 273 273 273 273 274 274 274 274 274 273 272 272 271 272 272 273 274 275 278 278 278 279 279 279 278 278 277
283 287 286 285 283 280 279 279 281 278 275 274 278 280 281 279 278 277 277 276 270 270 275 280 273 268 274 272 274 274 273 274 275 275 276 277 277 277 277 277 277 276 276 276 276 275 274 273 273 273 273 274 274 274 273 273 272 273 273 273 273 272 273 273 273 274 274 272 272 271 271 271 271 271 272 274 275 276 278 279 278 278 278 278 277 277
287 285 283 283 282 279 277 276 280 279 274 274 279 280 280 278 276 277 277 277 275 276 279 279 274 270 271 274 273 273 273 273 274 275 275 276 277 277 277 278 276 276 276 276 275 275 274 273 273 272 273 274 273 273 273 272 273 273 273 272 272 272 273 272 273 273 273 272 272 271 271 271 271 271 272 273 273 275 275 274 276 277 278 278 278 277
285 283 282 281 279 278 278 281 281 281 277 278 282 281 280 280 280 279 276 275 275 275 272 274 277 272 267 273 273 273 272 273 273 274 275 276 276 277 278 277 276 277 277 276 274 274 274 273 272 273 273 274 273 272 272 271 272 273 272 272 271 271 271 271 272 273 271 272 272 271 270 269 270 270 271 272 273 273 274 273 274 274 275 276 276 276
284 284 283 284 278 278 281 280 280 280 279 279 282 283 282 280 279 279 276 275 272 271 265 272 276 269 270 273 271 273 271 272 273 275 275 276 277 277 277 277 277 276 276 275 275 274 273 273 273 274 274 273 272 272 274 272 272 272 271 272 271 270 270 271 271 271 271 271 271 270 269 268 268 269 269 270 271 271 272 272 273 273 273 274 274 274
284 288 289 283 280 283 281 281 281 282 283 283 283 280 280 278 277 276 274 274 270 265 268 275 276 273 267 272 272 272 272 273 274 274 275 276 277 277 277 276 276 276 275 275 274 274 274 274 273 273 272 272 272 272 271 271 271 271 271 271 270 270 270 270 270 270 270 270 269 268 268 268 267 268 268 268 268 269 270 270 271 272 273 274 274 274
284 283 284 284 287 286 284 281 284 283 282 282 278 276 275 275 275 273 272 270 266 264 270 274 275 276 266 270 273 274 272 272 275 273 275 276 277 277 277 276 276 276 276 275 274 273 273 272 272 272 271 271 271 271 270 271 271 272 271 270 270 270 270 270 270 270 269 269 268 268 268 267 268 268 268 267 267 268 268 269 269 271 271 271 272 272
282 282 283 283 287 284 281 281 280 281 280 279 276 277 274 267 266 265 265 265 265 267 272 274 276 272 271 275 275 274 275 274 274 276 276 276 277 277 276 276 277 277 275 274 273 273 273 272 271 271 271 271 270 270 270 270 271 271 271 270 269 269 269 269 269 269 268 268 268 268 267 267 268 268 267 267 268 268 268 268 269 269 270 270 270 270
277 281 281 283 284 285 282 275 275 275 275 278 275 270 265 263 261 263 261 266 264 273 274 275 275 271 274 275 276 276 276 277 276 276 277 277 277 276 276 276 276 276 275 274 274 273 272 271 271 271 271 271 270 270 270 270 271 270 270 270 270 270 269 269 269 268 268 267 267 267 267 267 268 267 268 268 268 268 268 269 268 269 269 269 269 269
271 273 279 281 278 283 279 278 278 278 277 276 279 273 269 265 265 264 263 263 265 268 274 276 268 264 269 275 276 277 277 277 277 277 277 277 276 276 276 276 276 275 274 273 273 272 271 272 271 271 271 270 270 270 270 270 270 270 270 269 269 269 269 268 268 268 267 267 267 267 268 268 268 268 268 268 269 268 268 268 268 268 268 268 268 269
279 276 280 283 282 282 280 282 281 279 279 278 278 275 271 268 269 266 264 266 263 265 267 267 269 269 274 276 277 277 276 276 277 277 276 274 275 275 275 276 276 275 274 273 272 272 271 271 271 271 271 270 270 270 270 269 269 268 268 268 268 268 268 268 268 267 267 267 267 267 267 267 268 268 268 268 269 268 268 267 267 267 268 268 268 269
275 276 282 282 281 278 280 282 281 281 271 277 275 269 274 274 274 265 269 272 271 265 266 269 272 275 277 276 274 275 275 276 275 276 275 275 275 275 275 275 274 274 273 273 272 272 271 271 271 271 270 270 270 269 268 268 268 267 267 268 268 268 268 267 268 267 267 267 267 267 267 267 267 267 267 266 266 267 267 268 267 267 268 268 268 268
273 275 279 280 280 282 281 282 282 281 281 275 270 273 279 277 275 269 265 262 263 261 265 270 270 272 271 271 274 274 274 275 275 274 274 276 276 274 275 275 274 274 273 273 272 271 271 271 271 270 271 270 269 268 267 267 267 268 268 268 267 267 266 267 267 266 266 266 266 266 266 267 267 267 266 266 266 267 267 267 267 267 267 267 267 267
277 272 277 281 281 281 282 280 279 282 281 278 276 277 275 267 267 267 266 264 263 262 264 267 266 271 270 272 273 273 273 274 275 272 270 273 274 274 275 274 274 273 273 272 271 271 271 270 270 270 270 269 268 268 268 267 267 267 267 267 267 266 266 266 266 266 266 266 266 266 266 266 267 266 266 266 266 265 265 265 265 265 266 266 266 266
279 271 275 280 278 281 280 278 272 276 279 280 278 276 277 273 266 266 266 263 264 263 263 268 269 269 271 271 272 275 275 275 275 270 273 274 273 275 274 274 273 273 272 271 271 270 270 270 269 269 269 268 267 268 268 267 267 267 267 267 267 267 266 266 266 266 265 265 265 265 266 266 266 266 266 265 265 264 264 264 264 265 265 265 266 265
276 275 269 276 280 280 275 276 274 274 271 274 273 272 274 269 273 271 268 267 266 260 260 259 263 271 276 275 276 278 277 276 271 274 273 274 274 274 274 273 273 272 272 271 271 270 270 270 269 269 269 268 268 268 267 266 266 267 267 266 266 265 265 265 265 265 265 265 265 265 265 265 265 265 265 264 264 264 264 264 265 264 265 265 265 265
272 276 271 274 275 275 276 278 278 276 277 275 273 269 272 266 269 264 267 267 265 265 262 260 265 272 278 280 280 278 278 275 275 274 274 274 274 274 273 273 273 272 271 270 270 269 270 270 269 269 269 268 267 266 266 266 266 266 266 266 266 265 265 264 264 264 264 264 264 264 264 264 264 264 264 264 264 264 264 264 264 264 264 264 264 265
278 276 273 271 274 277 277 278 278 278 278 277 276 274 273 267 266 264 264 263 265 265 262 263 261 270 276 277 278 278 277 275 276 275 275 275 274 274 274 273 273 272 271 270 270 269 270 269 269 268 268 266 266 266 266 265 265 265 266 265 265 264 264 264 264 264 264 264 264 264 263 263 263 263 263 263 263 263 263 263 263 264 263 263 263 264
286 272 269 274 277 276 278 276 276 276 279 278 276 274 274 269 271 270 265 261 263 263 264 263 262 270 278 277 278 276 276 276 275 275 276 274 274 274 273 272 271 271 271 270 269 269 269 269 268 267 266 266 266 265 265 265 265 265 265 265 264 263 264 264 264 264 264 263 263 263 263 262 262 262 262 262 262 262 262 263 263 263 263 263 263 263
274 275 273 268 269 273 274 276 276 277 277 274 271 274 273 270 268 265 266 264 265 264 268 264 262 269 278 277 278 277 277 278 278 276 275 275 274 274 273 272 271 271 270 269 269 269 269 268 267 267 266 265 265 265 265 265 264 264 264 264 263 263 263 263 264 263 263 263 262 262 262 261 262 261 261 261 262 262 262 262 262 263 262 263 263 263
275 274 272 269 268 269 270 270 270 268 271 273 275 274 273 271 268 269 268 263 263 265 268 263 265 275 281 278 278 279 278 278 277 277 275 275 275 274 273 271 271 270 269 268 268 268 268 267 267 266 266 265 265 264 264 264 264 263 263 263 264 262 263 263 263 262 262 262 261 261 261 261 261 261 261 261 261 261 262 262 262 262 262 263 263 263
272 275 276 272 271 272 275 276 277 279 275 272 271 272 271 270 271 268 265 263 266 265 267 270 272 277 278 279 280 281 281 279 279 277 275 275 275 274 273 271 271 270 269 268 268 268 268 267 267 266 265 265 265 264 263 263 263 263 263 262 263 262 262 262 262 262 261 261 261 260 260 260 260 261 261 261 261 261 261 261 262 262 262 263 263 263
270 270 274 276 275 277 278 278 279 278 276 277 274 273 271 271 270 271 270 270 270 266 269 274 275 273 276 280 280 281 281 280 280 279 276 275 274 274 272 271 275 269 269 268 268 268 267 267 266 265 265 265 264 264 263 263 263 263 262 261 262 262 262 262 262 261 261 260 260 260 260 260 260 261 261 261 261 261 261 261 262 262 262 263 262 262
271 270 270 272 271 275 277 278 279 278 277 277 276 275 271 271 270 270 271 275 273 270 271 278 275 272 277 279 281 281 280 279 280 279 277 275 274 273 272 271 270 269 268 268 268 268 267 266 265 265 265 264 264 263 262 262 262 262 262 262 262 261 261 262 261 261 260 260 259 259 260 260 260 261 261 260 260 260 261 261 261 262 262 262 262 262
272 268 269 271 274 276 276 277 277 276 275 275 275 276 277 273 271 272 274 274 274 273 276 276 276 276 278 279 280 281 281 280 280 278 275 275 275 274 272 271 269 267 267 267 268 267 266 265 264 264 263 263 262 261 261 261 261 262 261 262 261 261 261 261 261 260 260 259 259 259 260 260 260 260 260 260 260 260 260 261 261 261 261 261 262 262
274 270 277 270 270 275 276 277 275 276 274 275 278 277 276 276 274 273 273 274 273 273 275 275 274 274 279 281 280 281 281 279 276 276 278 277 274 274 272 271 269 268 268 268 266 266 265 264 264 263 263 262 262 261 261 260 261 261 262 261 260 260 261 261 260 259 259 259 259 259 259 259 259 259 259 259 259 260 260 260 260 260 260 261 261 261
272 269 269 268 269 272 276 275 276 276 276 274 275 276 276 274 271 273 271 274 272 272 274 271 270 273 279 280 278 278 277 277 278 279 277 276 275 274 272 271 269 268 267 267 266 266 265 264 263 263 262 262 261 261 260 260 261 261 261 261 260 260 261 260 259 259 259 259 259 259 259 259 259 259 259 259 259 259 259 259 260 260 260 260 260 261
270 269 269 267 269 270 274 275 276 276 274 272 272 276 277 277 277 275 276 275 276 277 271 271 274 280 281 280 278 280 279 279 278 278 277 276 274 274 272 271 269 268 267 266 266 266 265 264 263 263 262 262 261 261 261 261 261 261 261 260 260 260 260 259 259 259 258 258 258 258 258 258 258 258 258 258 258 259 259 259 259 259 259 259 260 260
269 269 269 269 268 267 271 274 275 272 270 270 280 278 278 278 277 275 276 277 278 278 277 279 280 281 280 280 279 279 279 280 279 277 277 276 275 274 272 270 269 268 267 267 267 266 265 264 264 263 262 262 262 262 262 262 261 261 260 260 260 260 259 259 258 258 258 258 258 258 258 258 257 257 257 258 258 258 258 258 258 258 258 259 259 259
269 269 268 267 269 268 268 273 271 268 271 277 279 278 278 279 278 278 279 278 277 277 278 278 279 279 281 281 280 280 280 279 277 277 276 275 275 274 274 271 268 268 268 267 266 265 264 264 264 263 262 262 261 262 261 261 261 260 260 259 259 259 259 258 258 257 257 257 257 257 257 257 257 257 257 257 257 257 257 257 257 258 258 258 258 258
269 269 269 271 266 267 268 267 267 271 277 281 279 275 276 276 275 275 276 278 278 278 278 277 278 280 280 280 280 280 277 276 275 276 276 276 275 275 272 271 270 269 268 268 267 266 265 264 263 262 262 263 262 262 261 261 261 260 259 259 259 259 259 258 257 257 257 256 256 256 257 256 256 256 256 256 256 256 256 256 257 256 257 257 258 259
274 269 269 269 268 267 266 265 272 277 277 277 275 277 275 275 274 274 272 279 278 277 277 277 279 279 279 279 280 278 274 275 276 278 278 277 274 272 273 272 270 270 269 268 267 266 266 265 264 263 263 262 262 261 261 261 260 259 258 258 258 258 258 257 256 256 256 255 255 256 256 256 256 255 255 256 255 255 255 256 256 256 257 256 257 258
275 272 271 270 270 268 269 266 267 266 267 274 277 277 278 276 275 275 273 275 280 279 280 279 279 279 279 279 278 276 274 274 274 278 276 272 272 270 270 270 270 269 269 268 267 266 265 264 264 263 262 262 261 261 261 260 259 258 257 257 257 257 257 256 255 256 256 255 255 256 256 256 255 255 255 255 254 254 255 256 256 256 257 256 257 257
275 273 269 269 269 266 268 266 264 264 272 277 277 276 276 276 276 275 271 273 278 278 280 279 278 279 278 278 278 275 273 271 275 279 277 271 271 271 270 270 269 269 269 268 266 265 264 264 263 263 262 261 260 261 260 259 258 257 256 257 257 256 255 255 255 255 255 255 256 255 255 255 255 255 254 254 254 254 254 255 255 256 256 257 257 257
271 268 270 269 266 266 265 265 266 267 273 277 276 275 275 276 277 276 271 273 278 278 277 278 278 279 279 278 276 274 273 273 276 281 274 271 271 271 270 270 269 268 268 268 267 266 265 264 263 262 261 261 261 261 259 259 257 256 256 256 256 255 255 255 255 256 256 256 255 255 255 255 254 254 254 254 254 254 254 255 255 255 256 256 257 257
268 269 269 269 267 268 271 266 265 272 277 280 276 275 275 276 277 269 270 281 279 277 277 277 278 279 279 277 275 274 276 280 283 280 271 272 271 271 271 271 270 269 268 267 266 266 264 263 263 262 262 261 261 260 259 258 256 255 256 256 255 255 255 256 256 256 255 255 254 254 254 254 253 253 253 253 253 254 254 254 255 255 255 255 256 256
266 264 267 266 267 268 267 267 269 271 279 276 274 276 276 276 270 274 282 281 279 281 278 277 279 279 278 278 277 278 281 282 281 278 274 272 272 271 270 270 269 269 268 268 267 265 264 263 263 262 262 262 261 260 259 257 256 255 255 254 254 255 256 256 255 254 254 254 254 254 253 253 253 253 253 253 253 253 253 254 255 255 255 255 255 255
272 269 267 265 268 269 268 265 267 268 273 277 276 275 277 272 279 284 284 282 282 281 282 280 278 279 278 278 278 279 280 280 280 279 277 275 273 272 270 269 268 267 266 265 265 265 264 263 262 262 261 261 260 260 258 257 255 255 255 254 255 256 256 255 254 254 254 254 253 253 252 252 252 252 252 252 253 253 252 253 254 254 255 254 254 255
274 273 268 269 271 269 267 267 271 278 277 278 279 278 276 279 286 286 284 283 285 284 283 282 281 281 280 279 280 280 280 280 280 279 278 276 274 273 271 270 269 268 267 266 266 265 264 262 262 261 261 260 260 259 259 257 255 254 254 254 256 255 255 254 254 254 253 252 253 252 252 251 251 252 252 252 252 252 252 253 253 254 254 254 254 255
277 275 273 276 272 275 275 276 282 279 275 278 280 284 286 285 284 283 282 282 282 283 284 281 282 283 281 280 280 280 280 280 280 280 278 277 276 273 271 270 269 268 267 266 266 265 263 262 261 261 260 260 259 259 258 257 255 254 253 255 256 255 254 253 253 252 252 251 251 251 251 251 251 251 251 251 252 251 252 253 253 253 254 254 254 255
279 279 277 279 276 277 280 283 285 284 285 282 280 281 282 283 284 284 283 282 283 284 284 283 284 284 283 280 279 280 280 280 280 279 278 277 276 274 273 271 270 269 268 267 266 264 263 262 261 260 259 259 259 258 257 256 255 254 254 255 255 254 253 253 251 250 250 250 250 250 250 250 250 250 250 251 252 252 253 253 253 253 254 254 254 254
278 277 279 276 276 277 275 278 280 282 282 283 284 285 283 282 283 283 283 283 284 284 284 284 284 284 283 282 280 281 282 282 280 279 279 277 275 274 272 271 270 269 268 266 266 264 262 261 260 259 258 258 258 258 257 256 256 255 255 254 254 254 253 252 250 250 249 249 249 249 250 249 249 250 251 251 251 252 253 253 253 253 254 254 253 253
276 280 277 277 277 276 279 282 283 284 283 284 284 283 283 284 284 283 283 284 284 284 284 284 283 282 282 281 282 281 281 281 280 279 278 276 275 274 272 271 270 269 268 268 266 265 263 261 260 259 258 258 258 257 257 256 255 255 255 254 254 253 252 251 251 249 248 248 249 249 249 249 251 252 251 251 251 251 252 252 252 252 253 253 253 253
279 280 275 275 277 278 279 281 282 282 283 284 284 285 285 285 284 284 285 285 284 284 284 284 284 283 283 283 283 282 281 281 280 280 279 277 275 273 272 271 270 269 268 267 266 264 263 262 261 260 259 258 258 257 256 256 256 255 255 255 254 252 250 250 250 250 248 248 249 249 250 250 251 251 250 250 251 252 252 252 252 253 253 254 255 255
278 276 276 277 275 275 276 281 283 279 279 283 284 285 285 286 285 284 284 284 284 284 284 284 284 285 283 282 281 281 280 281 281 280 278 277 276 274 273 271 270 269 268 267 266 264 263 262 261 260 259 259 258 257 256 255 255 255 255 254 253 251 250 250 249 248 248 247 248 249 249 250 250 250 250 250 250 251 252 255 258 257 256 257 260 262
278 278 278 275 274 277 283 284 284 283 282 283 284 286 286 286 285 283 283 283 284 285 285 284 283 283 284 284 282 280 280 280 280 280 278 276 276 275 273 271 269 268 267 266 264 263 262 262 261 260 259 259 258 256 256 255 255 254 254 254 253 251 250 249 249 249 248 249 248 249 250 250 249 249 250 250 250 250 251 251 254 259 260 260 261 263
Wind_Speed
1 10 7 4 2 3 1 2 2 1 3 3 2 2 7 6 6 5 5 6 3 4 4 4 2 5 5 4 2 0 3 5 5 6 4 4 5 4 4 4 4 4 3 2 1 2 5 4 5 3 3 5 8 6 5 5 6 6 7 8 9 8 9 8 9 9 11 11 11 11 10 9 7 7 9 8 5 7 7 8 9 5 4 3 4 3
5 12 4 0 0 1 1 1 2 4 1 4 2 2 7 4 8 6 6 3 3 3 4 4 1 4 5 3 3 0 4 5 6 5 5 5 5 5 5 5 4 4 1 2 5 5 5 3 2 3 4 5 9 5 4 5 4 4 6 7 7 7 7 7 8 8 8 8 8 9 9 10 9 9 9 8 8 6 4 7 7 5 5 5 5 5
9 7 1 2 1 2 2 2 2 3 2 0 3 3 0 4 7 8 3 2 2 3 8 3 3 5 6 4 2 1 1 1 3 6 6 7 6 4 4 5 3 1 2 3 3 3 1 0 2 3 3 4 4 1 3 4 4 4 5 5 4 5 5 6 7 7 8 8 9 10 10 10 9 7 8 9 8 7 10 8 4 3 4 6 6 5
7 1 3 2 3 3 3 2 7 8 3 1 1 0 5 3 3 7 6 3 6 1 4 2 5 3 2 0 1 2 1 1 1 4 5 6 6 6 5 4 2 1 1 4 3 4 2 1 1 2 3 3 3 2 3 3 4 4 5 4 4 5 5 6 7 9 8 10 10 9 10 12 11 9 8 7 7 8 6 7 5 2 4 6 6 5
5 2 1 3 3 1 2 3 5 6 4 4 2 1 2 4 4 6 7 7 8 4 2 2 5 4 4 3 4 3 1 1 1 1 2 3 4 4 2 2 2 2 3 4 3 4 0 1 1 2 2 2 2 3 2 3 4 3 3 3 3 3 4 5 7 8 7 9 9 9 10 10 11 11 10 9 8 7 6 6 5 3 5 6 4 2
2 1 1 3 3 5 3 2 1 3 5 6 3 2 3 4 5 6 4 6 7 5 1 3 6 5 2 8 6 3 2 3 2 4 5 4 4 4 3 2 3 3 3 4 3 4 3 2 2 3 3 1 1 1 2 2 3 3 3 2 3 4 4 5 6 7 6 7 8 9 9 10 9 10 10 11 11 10 9 7 4 4 3 3 3 3
2 2 2 1 1 4 4 1 1 3 0 2 4 4 3 4 4 5 5 3 4 2 3 1 1 9 0 6 8 5 5 6 4 6 6 6 6 5 4 4 4 3 4 3 3 3 2 2 1 2 2 1 2 3 3 4 3 2 3 3 3 4 3 4 6 6 6 7 7 8 9 8 8 8 8 9 10 10 9 8 7 5 4 3 3 2
2 3 6 4 3 3 3 3 1 2 3 2 3 3 2 3 5 5 3 2 5 3 5 0 4 3 9 6 2 5 5 7 7 8 8 7 7 7 6 6 4 3 5 4 3 4 4 1 1 2 2 1 2 3 4 4 2 2 2 3 3 3 3 3 5 6 6 7 7 7 7 9 9 10 11 10 10 9 9 10 10 7 5 6 5 5
1 1 2 3 2 2 2 1 4 2 1 5 9 6 9 7 9 5 2 3 2 1 7 6 2 1 4 4 1 4 5 6 12 10 10 9 8 8 8 7 4 6 4 3 4 5 3 3 3 1 2 2 3 3 3 4 1 1 3 3 3 3 3 3 4 6 6 7 8 6 6 8 8 10 10 11 10 9 9 10 9 8 8 7 7 6
1 0 2 2 2 3 3 4 1 6 2 4 5 10 6 3 2 3 2 1 2 2 5 1 0 2 8 2 2 0 3 10 10 10 11 11 10 9 7 5 5 5 4 5 5 4 3 4 1 0 2 4 2 1 3 3 2 3 2 2 2 3 4 4 5 5 6 6 6 7 8 9 9 9 10 9 10 11 10 10 9 7 7 6 7 5
1 2 4 3 0 1 2 4 3 4 7 4 8 6 8 5 4 2 4 1 2 1 5 4 2 3 7 5 6 6 8 6 4 2 4 4 7 8 7 6 5 4 5 5 4 4 4 1 1 3 3 1 1 2 3 3 3 3 1 0 1 2 3 3 3 4 5 6 7 7 9 10 10 10 10 10 10 9 10 10 10 9 8 7 7 6
2 3 1 2 1 3 0 3 1 2 2 3 2 3 4 1 7 3 3 4 2 6 5 4 1 1 4 8 5 7 2 4 8 5 7 8 10 10 7 6 5 5 6 5 3 4 2 2 2 1 1 1 2 3 3 2 2 2 1 1 1 1 1 1 1 2 3 4 6 7 9 10 10 9 9 10 11 10 10 10 9 8 7 6 5 5
1 1 1 5 1 2 2 0 3 3 5 7 4 6 8 4 5 2 3 4 1 4 2 4 6 8 6 8 6 3 8 7 6 7 8 9 10 8 6 6 6 6 4 3 3 2 0 0 0 1 1 2 3 3 3 3 1 1 2 3 3 3 1 1 0 2 2 3 5 7 9 9 9 9 9 10 9 8 8 8 9 8 7 7 7 6
2 1 3 3 4 2 1 2 5 3 4 7 6 3 5 5 4 4 4 2 3 8 4 2 3 4 6 8 7 9 10 10 9 9 7 8 9 9 8 5 6 5 3 2 1 0 0 0 0 0 1 1 3 3 3 2 2 2 3 4 6 7 3 1 2 2 2 2 4 5 7 8 7 8 9 7 7 8 7 7 8 8 7 7 7 7
4 3 2 1 0 1 2 2 2 2 2 2 1 3 3 4 1 4 2 4 6 8 13 2 2 5 5 5 3 9 7 7 7 7 7 6 7 7 5 4 4 4 3 1 1 1 1 0 0 1 1 2 3 4 3 2 3 4 6 7 9 11 5 2 1 1 2 3 4 5 6 6 7 8 7 6 8 6 7 7 7 7 7 7 6 7
2 5 1 1 2 1 2 1 2 2 0 3 2 6 5 1 2 3 4 3 4 6 10 2 4 4 5 2 2 1 1 2 4 5 4 6 5 4 4 5 5 3 2 2 2 1 1 1 1 0 0 1 2 3 3 4 4 5 6 8 8 6 5 5 7 3 3 4 4 5 6 7 9 9 8 7 7 7 8 8 8 8 7 6 7 6
3 1 1 2 6 3 0 0 1 1 1 2 2 0 2 3 3 1 5 4 0 2 8 3 7 5 6 4 0 1 1 6 4 6 5 7 7 4 5 5 3 3 3 4 3 3 2 0 0 0 1 1 2 2 2 2 3 5 8 7 5 5 4 6 6 5 5 6 7 7 7 7 8 7 7 7 9 9 8 8 8 7 7 7 7 8
1 8 3 3 1 0 1 1 0 1 1 2 2 3 1 3 4 3 3 3 1 2 6 3 7 12 8 9 1 2 4 10 8 6 8 10 4 4 6 4 4 4 5 5 4 3 0 0 0 1 1 1 2 2 2 3 3 5 5 4 5 6 7 7 6 6 6 7 7 7 8 8 8 6 7 8 8 8 9 9 8 8 8 7 8 8
2 4 1 2 1 3 3 2 3 0 1 1 2 3 2 2 3 1 1 6 6 5 6 5 4 10 4 9 2 4 5 9 9 6 5 7 6 6 6 6 5 5 4 4 2 0 1 1 0 0 0 2 2 2 2 3 3 5 3 3 3 5 5 6 6 6 5 6 6 6 8 9 6 6 7 7 7 8 8 9 9 9 9 9 8 8
1 1 6 2 2 0 1 2 2 2 4 2 2 2 1 3 3 0 2 2 5 7 6 9 7 10 5 5 6 7 7 8 6 2 4 6 6 7 7 6 6 5 5 4 2 1 0 0 0 0 1 3 2 1 1 2 3 6 3 3 4 5 6 6 8 8 7 7 6 7 8 8 6 7 7 6 8 8 9 9 9 9 10 9 9 8
1 2 2 2 2 1 2 2 4 7 2 1 3 1 2 0 2 3 1 3 3 3 2 2 9 9 7 6 4 9 8 6 4 4 4 6 8 8 6 5 5 5 4 4 2 1 0 0 0 0 2 2 1 1 1 2 3 4 4 3 4 5 5 5 6 6 7 7 7 8 9 8 7 8 7 8 9 9 9 10 10 9 9 9 9 9
1 1 4 5 5 1 5 0 1 2 5 6 7 5 7 3 1 2 8 1 0 2 3 1 11 13 13 3 8 8 8 4 5 4 6 7 7 6 5 5 5 4 4 4 3 1 0 1 1 1 2 1 2 3 1 1 2 4 4 3 3 4 5 6 6 6 7 7 7 8 8 8 8 8 9 10 10 10 9 9 9 10 10 9 9 9
1 1 1 5 6 6 1 2 0 1 2 2 5 2 4 3 5 3 2 4 1 4 3 3 1 15 4 4 5 7 5 4 5 6 6 6 6 4 5 4 4 5 6 4 3 1 0 1 1 3 2 1 2 3 1 1 3 4 5 3 4 5 6 7 6 6 6 7 7 7 7 8 8 9 11 11 9 9 10 9 9 9 8 8 9 9
2 1 1 6 6 2 2 2 1 3 1 1 1 3 4 3 6 8 5 3 3 2 1 1 3 14 4 4 6 4 4 4 5 7 3 3 3 4 4 4 5 4 4 4 2 1 0 1 2 2 1 0 1 3 1 1 3 5 4 3 3 4 6 6 6 6 7 6 6 7 8 8 8 10 10 9 7 10 10 9 8 8 8 9 9 10
0 1 3 4 5 6 2 2 2 1 1 1 2 4 3 4 7 3 5 1 1 7 8 8 9 11 6 3 3 2 4 5 4 3 4 4 4 4 4 3 5 5 5 4 2 0 1 1 1 1 1 0 2 2 1 2 3 4 4 3 3 3 4 5 5 4 4 5 6 7 8 9 9 9 9 8 8 10 10 10 9 8 9 9 9 9
1 2 1 1 3 7 8 8 6 4 4 3 1 1 3 9 9 2 1 1 3 4 7 3 9 15 12 4 4 6 8 6 4 4 5 4 4 3 3 5 6 6 5 4 2 1 2 1 2 1 1 0 1 1 1 2 3 3 3 3 3 3 4 4 3 3 4 4 5 6 8 8 8 8 8 9 9 9 9 9 9 9 9 9 10 10
0 1 2 6 7 8 8 6 2 2 2 3 5 5 7 2 4 5 5 5 8 4 8 12 11 20 24 23 15 12 10 10 10 5 6 5 4 4 4 5 6 6 6 4 3 2 2 1 2 2 2 0 2 0 0 1 2 3 2 2 2 2 3 3 3 4 3 4 5 6 7 8 7 7 7 7 7 8 8 9 9 9 9 8 9 10
2 1 6 7 9 12 7 8 8 4 9 11 9 8 6 8 10 8 9 10 5 1 11 9 14 10 19 18 18 19 17 13 10 9 6 5 4 5 5 4 5 5 5 4 2 1 2 2 3 2 2 1 1 0 0 1 2 3 1 2 2 2 2 4 4 4 4 4 5 6 7 7 7 7 8 7 8 9 9 9 9 9 8 8 9 9
3 2 6 4 9 8 10 12 12 9 8 11 10 7 6 9 9 15 17 15 4 6 14 20 3 6 20 21 21 19 15 13 15 13 6 5 3 3 4 4 4 5 5 3 3 2 2 3 4 3 2 1 1 1 0 1 2 2 2 2 2 1 2 3 4 4 4 5 6 7 7 7 7 6 7 8 9 9 10 10 9 9 9 10 10 10
2 4 5 4 8 11 9 12 11 9 5 6 9 11 11 11 16 18 19 13 12 15 20 19 20 23 22 22 23 20 15 13 13 6 2 2 5 5 3 4 3 4 5 5 4 3 3 3 3 3 2 2 1 1 1 2 2 3 3 3 1 1 2 3 5 4 4 5 6 7 7 8 8 7 8 8 9 9 9 10 10 10 10 10 10 11
2 4 2 0 2 10 5 6 4 5 4 10 13 9 11 12 13 16 12 12 8 14 19 23 21 23 22 17 15 16 12 7 5 6 8 6 4 4 5 5 4 6 6 5 4 4 4 4 4 3 2 3 2 2 2 2 2 3 5 2 1 1 2 2 4 4 5 6 6 6 7 7 7 8 8 8 9 9 10 10 10 10 10 10 10 11
1 4 2 1 3 8 2 3 7 7 7 9 17 18 10 8 7 7 8 11 7 15 15 6 8 15 18 7 7 6 7 7 12 12 8 6 4 4 6 7 6 7 6 6 5 5 4 5 5 4 4 3 3 2 2 2 3 4 4 1 1 1 1 2 4 5 5 5 5 6 7 7 8 8 9 8 9 9 10 10 10 10 10 11 11 11
4 1 1 2 2 8 5 5 10 12 9 9 9 11 11 7 8 4 6 5 15 10 5 8 15 14 12 6 9 14 11 11 10 9 9 6 6 7 8 8 7 7 7 6 6 6 6 6 6 5 4 4 4 2 2 2 3 5 1 1 1 1 3 3 4 4 4 4 5 7 7 7 8 9 9 9 9 9 9 10 10 11 11 11 11 11
2 2 0 1 2 6 8 10 6 5 6 5 2 5 6 5 8 9 11 13 14 10 11 10 14 13 14 16 15 16 13 13 10 6 5 7 7 7 7 7 7 7 7 7 7 7 6 5 5 5 6 5 5 5 3 3 4 2 3 2 1 2 3 3 4 3 4 4 5 6 7 7 8 8 9 9 9 9 10 10 10 10 9 10 10 10
4 3 3 1 1 6 5 8 5 2 8 2 1 3 3 4 6 12 13 12 7 10 15 16 18 19 19 16 14 14 13 10 4 7 6 7 7 8 9 7 8 8 9 8 7 6 6 7 6 6 6 5 4 4 3 3 2 3 2 1 2 3 4 2 3 2 4 4 4 5 7 7 7 8 8 9 9 9 9 9 9 10 9 8 10 11
5 4 2 1 2 3 2 1 2 9 6 13 11 1 1 2 1 1 10 14 16 15 15 14 19 18 17 16 14 11 6 8 7 7 10 9 10 10 8 9 9 9 9 8 8 8 7 8 9 8 7 4 4 4 4 4 3 3 3 2 2 4 5 3 2 4 4 4 4 5 7 6 7 7 8 9 9 9 10 9 9 9 9 9 9 9
8 2 3 3 1 3 3 2 10 10 17 9 2 1 3 3 3 3 6 14 4 5 7 10 15 14 14 14 13 9 4 6 9 15 8 12 10 9 11 9 9 9 8 6 8 8 8 8 8 7 6 5 5 5 5 3 4 3 3 2 3 4 4 4 4 5 4 4 4 4 5 6 7 7 8 9 9 9 9 9 9 8 7 9 9 10
3 4 3 3 3 3 3 7 6 5 4 8 3 1 1 1 4 2 3 13 6 9 10 11 13 15 14 12 10 5 4 7 13 14 4 7 8 9 7 6 6 7 7 7 6 6 7 8 7 7 7 6 6 6 4 5 5 4 4 3 4 5 4 4 5 5 5 3 4 5 4 6 6 7 7 7 8 9 9 8 8 8 7 9 10 10
3 4 2 3 3 4 1 2 3 2 10 5 4 3 2 1 6 3 2 10 7 7 9 11 13 13 12 11 9 1 4 8 15 13 5 9 9 9 10 9 9 9 9 10 10 10 10 8 9 9 6 6 7 6 6 5 6 4 4 4 4 5 5 6 5 5 4 5 4 3 4 6 6 6 7 7 9 8 9 9 9 8 8 8 8 10
1 1 1 2 4 3 2 2 7 5 9 4 3 3 3 1 3 3 9 8 2 5 8 8 12 12 11 10 5 3 5 11 15 15 5 12 13 12 13 11 10 10 10 9 8 9 9 9 6 7 8 9 8 7 6 6 6 6 5 5 5 6 7 6 5 6 5 3 2 4 5 4 5 6 6 9 9 9 9 8 8 8 8 8 7 9
1 1 2 9 2 4 6 6 4 9 9 9 4 4 2 1 1 2 8 14 2 5 6 8 10 12 9 8 6 7 12 15 17 9 5 7 8 8 8 10 11 12 11 10 10 8 8 8 8 8 9 7 7 7 7 6 6 5 6 6 5 7 7 6 5 4 3 3 3 5 5 4 4 6 8 8 8 9 9 7 8 9 8 9 8 8
1 1 1 2 3 6 5 6 9 8 10 4 2 6 3 1 5 10 9 3 5 10 6 8 12 12 9 11 10 13 16 14 13 7 6 9 13 10 11 11 9 8 7 9 10 10 7 7 8 8 7 8 8 8 7 7 6 5 5 5 8 8 5 5 3 3 4 4 4 5 4 4 5 6 7 8 8 9 9 8 8 8 9 8 8 10
6 5 5 4 4 0 1 1 5 6 2 6 12 2 1 2 9 8 10 9 8 12 12 9 8 14 8 12 14 16 16 15 13 12 11 10 11 11 12 13 13 13 12 11 10 10 10 9 10 10 10 8 9 8 9 8 7 6 5 8 9 6 5 4 4 4 4 4 4 4 4 4 5 7 6 7 8 9 10 9 8 8 8 8 8 9
4 1 2 4 7 3 4 4 5 7 4 7 6 7 5 13 13 13 11 16 16 13 12 12 10 12 10 12 15 13 15 16 15 12 11 11 11 10 10 12 12 11 11 12 13 13 12 10 10 9 9 9 8 8 9 9 8 7 7 10 7 5 4 4 4 4 4 4 4 4 4 5 6 6 6 7 9 9 9 9 8 8 7 7 7 7
7 5 5 5 3 5 7 8 11 1 5 8 6 11 13 13 11 12 9 12 15 16 13 10 15 15 10 12 14 14 14 15 16 13 13 15 12 12 13 14 15 14 14 13 13 12 12 12 12 10 9 9 10 9 9 8 9 8 10 8 5 6 6 5 4 4 4 5 4 5 4 4 5 6 7 7 7 8 8 8 7 8 6 6 6 6
2 2 0 0 7 4 7 11 12 12 13 9 7 12 15 17 17 14 14 14 13 14 12 13 16 17 14 7 10 13 14 16 14 13 13 13 12 12 11 11 12 12 12 11 10 12 12 10 10 10 11 10 11 10 9 9 9 11 11 5 5 6 6 5 5 5 5 5 4 5 4 6 6 6 7 8 7 7 7 7 7 7 7 6 6 6
2 2 1 4 3 7 7 4 6 10 11 14 17 14 10 11 13 12 12 13 15 15 15 13 14 15 15 11 11 16 19 15 14 16 13 11 12 12 13 14 14 13 14 16 12 12 11 10 11 12 12 12 11 10 10 10 10 10 7 7 7 6 6 6 6 6 5 5 5 4 5 6 5 6 6 5 5 4 5 6 6 7 7 6 6 6
3 1 2 5 4 4 11 13 15 16 14 17 13 11 13 14 10 9 10 12 14 15 13 15 14 15 12 12 15 16 20 17 14 16 13 11 12 12 12 13 14 12 10 13 13 15 12 12 13 13 13 13 11 11 10 10 10 9 8 7 7 7 6 7 7 7 6 6 5 4 4 5 8 9 5 5 4 6 6 5 5 7 7 6 6 6
4 1 5 1 3 9 8 13 13 11 12 12 12 12 13 13 14 17 17 17 16 17 18 17 13 14 15 17 17 16 18 20 16 16 15 11 11 11 13 13 14 16 14 13 13 15 18 14 14 15 15 13 10 10 10 11 10 9 10 8 7 8 8 8 7 6 5 5 4 5 4 5 5 5 5 5 6 6 6 6 7 7 8 8 7 8
1 4 3 3 6 8 6 12 13 14 15 18 17 15 17 18 17 17 18 18 18 18 18 20 21 19 14 14 15 15 17 19 18 14 15 14 13 13 12 12 12 13 14 15 13 16 16 15 16 17 15 14 10 10 11 11 10 9 9 8 8 8 9 8 6 6 6 5 5 5 5 5 4 4 5 5 6 6 7 9 13 11 9 8 12 16
1 5 0 5 5 10 14 15 13 12 14 14 16 19 19 17 16 16 17 18 20 19 18 18 20 22 23 19 10 12 17 18 21 16 14 12 14 12 12 12 13 13 13 13 12 14 16 17 15 15 16 15 13 11 11 10 10 9 9 10 9 10 9 8 7 6 6 6 5 5 5 4 4 4 5 5 5 5 7 8 7 12 16 15 14 14
Wind_Direction
85 70 45 47 285 326 333 108 145 230 207 233 280 304 272 276 273 262 291 285 6 3 245 229 149 158 191 190 202 240 123 123 136 137 136 147 149 164 175 182 196 206 217 226 226 354 338 4 30 358 337 360 4 10 45 34 19 18 13 1 355 348 349 347 345 347 354 348 342 341 329 318 321 316 310 294 260 249 251 237 233 218 187 169 159 163
59 75 19 246 341 265 249 94 46 335 271 210 242 239 279 300 303 292 281 353 1 69 285 293 124 183 190 201 218 12 123 165 160 147 154 162 174 183 186 203 212 222 241 324 350 339 345 34 4 358 6 360 7 9 40 41 13 19 8 359 350 360 1 4 5 8 360 342 336 337 335 334 332 330 321 304 297 295 263 249 234 202 189 186 187 193
42 89 207 240 277 17 313 39 5 56 279 241 191 220 29 292 285 298 317 352 349 27 266 270 245 211 203 197 232 164 200 219 190 166 175 168 191 197 200 206 216 266 271 319 314 325 331 346 10 10 345 5 354 21 56 54 23 9 4 9 17 5 6 3 7 14 357 339 344 343 337 334 323 317 319 317 307 294 291 298 266 230 206 207 213 197
53 320 256 299 20 34 50 50 23 3 44 108 79 26 294 262 60 307 285 291 313 197 258 279 287 239 212 213 248 269 173 228 156 165 179 182 186 194 205 191 185 224 295 298 277 265 249 76 339 332 0 343 344 15 47 37 13 4 15 28 18 9 9 1 8 3 350 342 341 342 339 336 335 322 313 312 307 297 286 290 299 269 263 240 216 194
133 202 244 24 30 100 117 27 53 43 358 319 170 131 257 317 272 191 272 323 299 310 179 1 300 297 208 192 240 273 269 178 242 137 189 214 199 192 166 171 174 232 245 257 262 268 288 316 292 298 341 349 11 6 71 29 11 20 42 14 27 20 8 3 5 358 349 350 348 343 343 345 343 345 337 336 332 324 312 306 303 358 12 4 2 76
37 246 108 35 42 37 74 14 3 82 4 321 237 216 249 261 287 277 292 338 12 336 309 59 349 300 235 220 226 234 242 236 239 196 226 226 231 213 203 218 246 259 233 220 239 275 211 215 251 354 338 339 339 359 62 30 18 65 29 11 30 19 16 2 358 352 359 359 349 344 347 348 347 343 347 351 343 336 332 333 352 337 349 351 343 341
161 349 82 276 42 41 45 115 193 98 84 66 312 190 250 267 257 281 303 47 347 326 275 28 139 274 180 231 215 198 214 230 254 219 229 227 226 213 221 227 241 234 270 273 268 271 214 254 346 317 303 292 344 35 40 16 43 55 28 13 35 20 11 3 356 354 359 355 348 343 339 334 332 332 333 338 338 341 341 340 338 336 327 318 319 314
17 348 20 27 77 50 40 16 274 101 82 296 252 326 292 287 283 268 267 160 230 272 297 277 141 228 310 281 217 178 201 238 245 239 234 232 226 212 218 229 227 239 242 215 235 248 210 203 218 254 265 327 30 62 27 11 28 34 14 35 31 15 9 2 357 355 355 344 338 336 336 334 333 332 326 330 327 329 334 339 338 340 341 342 347 355
108 328 40 21 48 44 17 220 285 115 154 248 293 325 307 298 285 281 208 227 215 14 303 336 17 351 260 263 56 147 224 252 248 237 236 232 223 213 219 220 224 237 238 215 255 265 230 228 240 240 358 2 62 40 19 357 339 338 47 40 19 5 357 343 352 351 347 336 333 339 342 341 338 331 328 325 320 321 325 323 326 330 336 333 340 344
331 145 208 135 104 353 275 285 205 147 4 276 287 311 290 278 237 204 148 137 332 62 288 290 211 262 270 261 7 334 261 261 246 233 229 224 219 217 224 228 236 249 239 238 246 256 237 232 228 94 53 44 62 20 4 355 348 5 72 29 17 350 340 336 348 350 340 335 356 354 346 339 332 328 322 319 320 321 321 316 316 319 320 324 323 327
222 274 171 113 171 224 261 267 203 188 226 327 340 325 321 8 60 36 80 98 54 11 255 211 106 119 303 261 204 164 222 206 228 245 237 228 223 226 227 218 239 244 239 249 255 259 242 258 115 62 71 67 8 2 352 346 7 357 114 298 350 309 347 349 345 347 1 10 4 349 340 333 328 326 319 318 318 316 313 315 317 317 314 314 310 319
358 342 46 272 36 313 134 313 343 200 4 349 351 334 343 347 11 32 354 40 64 283 255 160 168 247 297 297 265 223 251 195 165 194 198 214 220 223 224 232 244 250 247 251 272 264 297 8 6 59 31 339 339 352 343 343 4 345 267 233 289 303 1 351 354 31 30 6 353 345 338 328 321 320 321 317 311 310 312 313 311 308 304 303 316 325
301 268 269 316 270 120 319 70 306 359 6 34 3 5 41 302 29 340 13 4 221 237 239 164 16 4 235 228 238 244 214 225 220 189 204 215 224 224 232 233 244 253 260 273 245 260 304 157 217 314 315 356 340 330 326 327 334 320 302 286 277 277 255 216 161 68 36 7 350 341 333 322 317 317 313 306 304 310 313 311 308 317 319 323 321 319
287 307 356 285 5 260 103 74 327 11 337 12 29 30 60 10 21 324 270 222 302 284 226 343 48 236 254 281 229 222 218 208 208 218 218 209 213 216 222 239 253 260 256 226 218 218 188 195 245 278 347 314 322 326 320 316 332 320 316 316 307 304 268 275 51 43 12 357 342 334 320 313 316 311 308 303 311 311 309 326 334 335 336 335 335 342
23 343 271 152 274 29 68 131 173 192 300 265 216 121 157 133 120 328 320 330 281 268 300 351 96 233 333 257 221 212 211 209 220 222 221 221 213 211 221 248 265 261 239 183 204 202 195 232 296 303 268 322 325 322 326 329 348 350 346 338 329 319 316 8 64 341 357 351 342 329 320 318 319 305 301 309 306 317 342 335 328 327 327 323 323 322
210 218 243 228 234 38 105 221 126 100 69 257 149 90 58 261 133 162 212 225 295 344 318 325 185 207 213 250 292 239 243 244 234 231 200 230 235 236 262 258 245 234 240 214 213 216 214 203 226 218 267 315 322 338 351 19 15 357 340 331 330 343 359 357 347 1 359 344 334 332 326 317 310 311 310 311 333 340 330 323 319 317 315 313 313 313
20 306 216 322 28 67 240 88 27 148 62 300 55 23 226 183 115 308 328 270 42 73 250 226 313 291 303 309 316 349 319 258 250 241 226 237 239 240 250 253 243 227 227 213 205 205 210 279 313 117 9 348 17 31 53 37 8 350 340 341 359 352 2 357 347 358 3 354 347 337 331 323 320 319 337 341 332 325 320 315 313 313 319 324 333 328
142 264 279 113 263 284 217 147 124 40 139 65 63 235 108 123 123 120 266 322 105 181 266 325 277 303 19 300 348 312 287 267 261 239 229 238 251 262 257 257 236 225 205 197 195 184 150 54 44 54 357 75 64 54 45 16 1 348 340 2 354 353 355 350 355 4 352 350 345 338 333 330 319 337 336 329 324 330 335 333 331 332 330 338 334 330
97 339 310 237 165 268 339 50 359 47 19 155 180 193 85 319 349 313 81 338 344 316 289 285 274 280 216 257 329 269 229 257 255 251 235 245 249 250 250 245 231 213 201 200 185 120 352 329 227 190 257 127 80 68 66 12 357 343 354 346 347 340 345 350 349 344 347 351 344 334 327 316 323 337 330 327 344 348 332 329 328 326 328 325 324 323
31 149 296 12 75 199 35 72 260 260 332 17 51 19 282 101 173 107 201 189 129 269 8 293 349 286 209 227 202 257 244 244 246 248 231 234 225 228 230 219 213 213 200 183 179 183 239 235 190 208 147 125 97 64 92 6 357 349 327 331 339 345 347 353 352 348 346 346 339 329 321 318 332 332 331 343 341 329 324 319 318 318 316 315 315 313
275 123 250 280 314 18 312 171 206 159 165 335 30 325 351 12 212 131 228 166 192 213 202 269 317 287 259 208 217 262 261 242 204 222 218 223 222 222 215 205 208 201 180 175 177 204 233 243 226 218 121 108 77 38 58 16 356 338 327 336 341 339 350 1 353 347 338 337 332 325 318 325 337 337 340 336 327 321 317 317 317 316 313 312 311 312
77 3 210 306 349 229 231 195 189 189 170 172 166 200 170 116 46 19 278 17 85 106 235 114 275 277 282 185 219 238 240 200 199 182 218 221 229 224 207 212 194 184 178 178 190 184 236 271 239 152 105 88 36 10 22 349 350 336 319 320 328 340 340 342 343 344 336 332 326 322 340 348 339 334 329 323 317 312 312 312 313 313 311 308 306 305
140 175 101 278 228 237 223 207 231 206 140 172 144 222 158 136 111 116 264 280 344 244 140 163 95 273 229 228 209 219 212 188 186 189 217 215 222 216 209 212 194 171 176 185 175 175 236 240 195 162 140 100 26 346 349 2 345 330 321 334 347 348 343 345 341 341 336 327 326 345 346 338 333 327 322 316 316 317 315 313 311 310 307 307 307 305
63 97 5 277 291 309 306 324 334 30 43 337 335 112 114 173 177 180 178 176 164 281 250 271 198 264 283 224 211 202 198 177 193 204 227 224 227 206 205 201 168 174 184 175 165 168 226 233 170 148 99 74 340 341 356 345 341 330 332 347 339 346 343 342 335 334 332 329 339 341 336 331 324 317 314 316 320 317 314 312 310 312 306 303 297 292
41 279 127 311 348 332 347 355 338 338 69 189 206 223 165 92 81 129 99 45 281 223 181 135 247 270 267 222 210 222 244 272 291 253 198 237 226 215 224 191 179 187 184 177 173 215 269 230 154 169 173 166 336 339 31 346 337 337 328 330 336 338 339 330 328 333 332 341 340 334 328 322 316 312 315 316 313 310 312 312 311 306 299 294 289 285
145 228 104 321 323 327 323 329 307 293 236 226 194 149 158 137 132 114 218 68 188 266 147 182 257 261 272 173 217 271 280 280 247 242 230 211 228 225 208 185 193 189 189 179 191 219 284 235 175 167 149 318 334 352 49 345 329 323 311 319 350 338 335 326 331 336 338 347 336 325 320 316 315 315 317 313 310 311 311 308 300 296 293 290 290 291
145 291 181 173 169 211 227 242 239 85 338 258 250 170 210 176 177 123 113 128 216 214 191 232 228 283 295 296 301 294 295 298 306 287 249 254 241 215 194 196 196 193 180 180 194 217 242 194 194 185 174 200 326 93 118 331 323 308 310 334 335 322 324 324 330 331 340 334 329 320 316 316 314 312 309 308 310 311 306 300 297 295 294 295 294 296
66 321 247 218 234 238 250 272 272 313 270 274 265 255 197 173 179 167 173 222 160 66 281 234 229 255 275 291 298 301 303 307 299 295 265 243 222 207 207 206 190 174 173 182 200 242 269 225 191 181 196 251 314 132 118 324 315 293 257 293 305 325 333 327 325 324 326 330 318 315 313 309 309 309 307 312 314 308 303 300 301 301 300 301 299 297
149 201 275 141 261 239 256 262 271 273 250 257 252 240 208 197 171 195 223 223 140 226 241 273 251 253 279 285 287 288 292 296 297 294 256 211 200 200 204 205 202 197 189 199 216 241 241 235 205 197 207 244 311 304 254 294 295 287 282 294 293 326 325 321 315 313 325 323 316 312 311 311 309 306 311 313 310 308 305 305 304 307 307 305 302 300
89 255 240 192 281 279 254 255 259 247 263 259 246 240 228 187 205 208 230 224 210 234 251 267 281 274 270 276 279 284 291 284 283 280 237 217 233 225 238 261 225 210 210 218 230 239 231 204 192 204 217 258 248 216 261 278 286 279 281 273 242 330 308 321 306 321 323 312 312 313 312 311 308 310 315 313 311 308 307 309 310 308 307 305 303 301
125 274 145 238 346 293 290 265 265 229 229 275 271 234 228 217 218 222 234 247 230 266 263 261 271 279 271 263 273 275 274 278 290 266 258 262 262 261 265 258 236 219 218 220 224 242 228 198 194 206 223 245 226 225 222 238 254 269 271 253 147 284 304 309 316 312 309 307 312 313 310 309 309 312 314 314 310 312 313 312 310 308 306 306 304 303
106 261 36 69 10 293 298 11 323 314 282 260 276 279 247 210 237 225 208 216 176 231 248 279 283 264 272 267 233 257 277 277 278 282 279 272 254 246 256 256 235 225 218 219 228 232 216 208 210 215 232 224 221 214 222 246 261 262 255 177 239 285 300 305 309 305 298 307 315 313 309 307 311 313 312 313 312 312 312 310 309 308 307 306 306 303
182 151 15 22 352 259 270 343 328 318 318 306 269 236 226 213 213 242 250 188 210 206 253 257 252 257 275 300 306 291 284 280 276 266 278 270 237 236 243 243 234 222 215 212 227 228 219 210 207 213 212 204 201 216 219 231 260 272 202 215 263 296 293 289 296 300 302 313 313 307 307 308 310 310 309 311 312 310 310 309 307 308 307 305 304 303
129 134 205 157 204 261 305 329 315 353 323 244 229 178 141 216 204 226 250 228 225 172 221 217 253 285 297 291 284 281 286 283 279 260 211 233 254 250 243 227 222 213 210 217 218 220 215 199 197 196 196 207 208 198 207 205 227 208 160 182 208 288 282 279 292 289 296 308 308 306 305 307 307 307 307 308 309 306 304 304 303 304 303 303 303 302
160 126 221 139 232 279 317 342 359 299 248 229 259 207 205 230 201 221 246 268 246 228 248 269 272 271 267 269 270 273 273 281 280 259 254 228 225 241 248 229 213 204 213 219 223 211 199 200 204 198 198 203 201 211 208 218 218 152 179 151 283 281 275 256 279 284 285 290 301 301 299 302 304 302 305 304 303 300 297 298 301 303 304 302 303 303
164 143 202 282 174 321 16 6 2 247 266 296 303 194 184 87 116 20 287 252 250 239 233 246 257 261 268 274 277 271 289 294 293 247 244 242 215 230 227 222 212 202 213 214 212 210 201 196 197 200 209 197 190 201 205 213 166 165 182 193 250 268 267 261 254 271 275 278 283 287 297 299 299 299 301 300 297 297 300 301 300 302 304 300 296 294
154 120 106 277 173 218 213 178 236 317 316 315 26 237 159 193 181 173 278 292 209 221 196 234 255 264 269 268 271 292 351 326 307 289 244 234 220 210 210 213 194 204 209 213 198 208 197 191 186 188 180 180 191 194 207 176 154 166 178 211 234 251 242 243 254 259 255 260 267 282 287 293 296 296 296 295 296 298 299 301 302 300 300 296 297 299
147 155 234 122 280 141 273 319 328 359 312 281 230 329 282 200 140 143 98 289 280 230 220 225 247 257 263 270 276 298 23 351 300 291 253 216 196 198 204 201 194 194 198 196 184 182 174 178 176 184 176 189 198 203 189 166 170 177 197 212 231 230 225 233 245 251 249 241 265 276 283 292 293 289 289 293 293 295 295 297 295 294 297 294 297 297
38 74 122 147 261 24 32 207 246 226 258 223 251 207 239 190 114 103 50 280 274 213 221 204 236 246 249 261 270 59 353 312 285 288 249 189 196 195 195 203 195 196 191 189 184 181 176 176 174 172 183 194 211 196 171 175 166 180 206 217 225 224 226 230 239 242 246 254 257 269 285 286 284 284 288 291 291 293 293 293 294 292 291 286 287 289
48 9 42 311 250 203 148 216 251 214 258 264 174 196 217 96 117 59 329 295 253 226 214 196 226 243 250 247 232 196 216 270 287 293 167 191 191 192 178 192 194 194 195 190 190 186 173 153 167 190 192 200 207 177 182 167 172 194 210 219 219 229 231 227 225 239 233 235 255 270 278 279 282 286 290 291 291 290 286 286 288 289 288 288 286 289
158 290 169 223 188 207 192 265 318 282 266 272 217 165 143 201 64 17 293 301 273 210 225 204 234 242 240 244 178 230 222 223 257 284 139 178 179 198 201 195 196 189 187 182 183 161 165 179 186 191 193 201 192 178 176 167 178 206 210 217 225 234 231 224 226 229 216 236 248 268 274 273 277 288 288 285 285 285 286 284 285 287 286 288 289 288
259 146 291 104 233 213 203 195 237 256 256 156 39 133 180 91 340 312 269 232 286 291 251 216 247 250 234 229 223 229 250 248 253 262 202 190 201 199 184 175 185 194 192 181 170 167 172 179 193 195 197 197 186 181 176 174 194 209 210 218 231 232 221 215 216 203 203 242 259 267 271 275 282 284 284 287 285 286 283 280 278 279 283 283 286 289
196 148 208 196 210 115 170 255 333 316 286 104 126 75 222 149 240 254 299 301 276 283 291 276 235 262 227 247 236 241 254 261 252 244 231 215 206 203 191 187 190 189 187 171 177 184 179 193 196 198 198 187 182 176 173 180 203 213 211 223 230 216 205 208 197 197 211 239 254 262 267 272 280 283 284 283 283 280 281 282 281 279 280 282 286 285
198 171 245 245 177 166 176 180 216 217 169 177 147 294 207 215 266 291 306 296 295 290 288 289 275 257 246 237 255 254 250 257 262 250 242 230 219 210 197 196 197 195 192 193 190 188 185 198 198 199 195 190 189 186 184 188 204 211 216 230 217 203 200 195 191 201 220 231 245 256 264 273 275 278 279 279 281 277 277 280 279 281 277 279 283 287
200 189 188 247 220 171 218 219 257 314 141 211 221 252 271 268 273 274 275 271 286 290 283 283 277 279 255 245 254 257 267 256 253 249 237 237 220 211 205 201 196 196 194 192 194 185 183 194 199 197 199 193 191 190 191 190 199 210 226 226 189 201 194 195 199 209 225 228 239 249 261 268 272 278 277 274 272 274 276 279 281 284 281 279 281 281
274 207 10 360 263 287 271 257 286 306 295 283 233 242 263 274 281 287 284 289 281 275 281 279 285 286 284 245 252 264 251 260 263 254 242 239 226 222 210 199 197 196 194 193 192 189 193 193 195 195 201 202 194 195 191 196 193 210 224 202 194 195 189 190 198 211 221 227 236 245 253 270 276 271 268 267 260 257 262 274 280 281 285 279 274 278
332 17 18 269 287 7 292 352 325 288 296 296 292 280 257 255 268 279 288 278 280 287 289 283 279 282 282 277 247 261 269 263 257 256 247 238 230 221 209 206 197 185 184 192 192 180 187 187 196 203 204 210 203 196 196 197 204 211 206 198 196 188 186 193 197 210 216 226 234 245 247 264 272 274 268 259 260 259 268 271 270 272 276 275 275 275
332 28 346 254 287 254 262 285 291 293 290 287 284 295 305 303 294 287 276 282 287 290 288 287 291 289 282 275 266 266 271 268 260 262 252 236 230 222 215 209 202 189 202 189 173 180 184 194 201 204 204 212 205 197 197 201 205 203 196 193 186 184 185 193 200 210 218 225 226 237 244 254 272 276 276 276 276 282 279 267 261 266 267 265 264 264
245 16 271 222 288 264 271 271 273 292 281 282 307 314 307 309 314 314 311 307 304 302 302 298 286 277 282 278 279 276 276 274 262 259 260 247 234 226 219 212 206 200 180 180 187 188 190 193 201 200 203 213 201 194 199 203 203 195 196 194 184 177 184 199 205 208 216 215 219 239 245 253 256 257 273 280 278 266 257 270 274 268 267 248 231 237
8 281 247 334 312 305 289 308 332 332 321 315 314 311 311 315 318 312 312 312 313 314 314 312 309 303 285 272 273 274 271 277 276 267 259 251 241 234 223 214 208 202 204 199 187 187 198 204 201 198 205 205 188 196 199 202 201 196 193 186 182 176 190 198 199 208 219 211 221 234 235 248 250 258 267 269 277 284 284 269 276 276 274 278 275 269
199 244 319 308 293 300 304 307 314 301 290 292 306 312 315 318 318 316 316 316 314 315 314 313 312 312 310 303 278 258 269 271 275 276 269 259 248 237 225 212 205 205 205 191 190 200 205 202 204 205 210 199 182 196 201 202 198 194 193 186 184 181 190 185 200 209 214 211 217 220 233 238 249 255 257 258 267 277 289 300 289 290 289 284 279 276